Regional Weather Roundup
Issued by NWS

Home | Current Version | Previous Version | Text Only | Print | Product List | Glossary Off
Versions: 1 2 3 4 5 6 7 8 9 10 11 12 13 14 15 16 17 18 19 20 21 22 23 24 25 26 27 28 29 30 31 32 33 34 35 36 37 38 39 40 41 42 43 44 45 46 47 48 49 50

000
ASUS43 KMKX 310700
RWRWI

WISCONSIN REGIONAL WEATHER ROUNDUP
NATIONAL WEATHER SERVICE MILWAUKEE/SULLIVAN WI
200 AM CDT SUN AUG 31 2014

NOTE: "FAIR" INDICATES FEW OR NO CLOUDS BELOW 12,000 FEET WITH NO
SIGNIFICANT WEATHER AND/OR OBSTRUCTIONS TO VISIBILITY.

WIZ001-002-006>008-014>016-023>028-310800-
NORTHWEST WISCONSIN

CITY           SKY/WX    TMP DP  RH WIND       PRES   REMARKS
SUPERIOR ARPT  MOCLDY    56  56  98 CALM      29.91R
ASHLAND        FOG       51  50  96 CALM      29.92S VSB 1/4
HAYWARD        PTCLDY    59  56  89 SW5       29.93R
SIREN          MOCLDY    59  58  95 CALM      29.92R
RICE LAKE      CLOUDY    58  56  92 NE3       29.93R
LADYSMITH      CLOUDY    60  58  93 E3        29.93F
EAU CLAIRE     NOT AVBL
MENOMONIE      FOG       58  58  99 CALM      29.91R VSB<1/4
NEW RICHMOND   MOCLDY    61  60  98 CALM      29.91R
OSCEOLA        PTCLDY    62  62 100 E5        29.93R
$$

WIZ003>005-009-010-017-018-310800-
NORTH CENTRAL WISCONSIN

CITY           SKY/WX    TMP DP  RH WIND       PRES   REMARKS
WOODRUFF       MOCLDY    57  56  95 CALM      29.93F
RHINELANDER    CLEAR     53  53 100 CALM      29.93F FOG
EAGLE RIVER    FOG       52  52 100 CALM      29.93S VSB 1/4
LAND O LAKES   CLOUDY    56  55  95 CALM      29.94S
PHILLIPS       CLEAR     54  53  99 CALM      29.92S
TOMAHAWK       CLEAR     52  51  97 CALM      29.93F FOG
MEDFORD          N/A     53  53  99 E5        29.92F FOG
MERRILL        PTCLDY    55  55 100 CALM      29.93S
$$

WIZ029-030-035-036-043>047-310800-
CENTRAL WISCONSIN

CITY           SKY/WX    TMP DP  RH WIND       PRES   REMARKS
WAUSAU         CLOUDY    61  56  83 N3        29.91S
MOSINEE        CLOUDY    61  59  94 NE5       29.92F
MARSHFIELD     CLOUDY    63  60  90 E3        29.91F
STEVENS POINT  CLEAR     59  58  96 CALM      29.91S
WAUPACA        CLEAR     63  62  95 CALM      29.92R
WAUTOMA        NOT AVBL
WISC RAPIDS    CLOUDY    61  60  97 CALM      29.92S
CAMP DOUGLAS   FOG       59  59 100 CALM      29.91S VSB 1/2
$$

WIZ011>013-019>022-031-037>040-048>050-310800-
NORTHEAST WISCONSIN

CITY           SKY/WX    TMP DP  RH WIND       PRES   REMARKS
ANTIGO         CLEAR     55  55 100 CALM      29.93S
STURGEON BAY   CLOUDY    63  57  82 NW5       29.91R
GREEN BAY      CLOUDY    64  60  87 N5        29.91R
MANITOWOC      NOT AVBL
APPLETON       CLOUDY    63  61  94 CALM      29.92R
CLINTONVILLE   CLOUDY    63  59  88 N5        29.91S
OSHKOSH        MOCLDY    65  63  93 CALM      29.91R
$$

WIZ032>034-041-042-053>061-310800-
SOUTHWEST WISCONSIN

CITY           SKY/WX    TMP DP  RH WIND       PRES   REMARKS
LA CROSSE      PTCLDY    64  61  90 CALM      29.89S
SPARTA         CLEAR     60  59  96 S3        29.91S
VIROQUA        CLOUDY    64  64 100 E3        29.91S
BOSCOBEL       FOG       67  65  93 CALM      29.90S VSB<1/4
PRAIRIE DU CHI CLEAR     65  63  94 SE3       29.89S
PLATTEVILLE    FAIR      65  64  94 CALM      29.92S
$$

WIZ056-057-062-063-064-067-068-310800-
SOUTH CENTRAL WISCONSIN

CITY           SKY/WX    TMP DP  RH WIND       PRES   REMARKS
BARABOO/DELLS  CLOUDY    65  63  93 CALM      29.91S
LONE ROCK      FOG       67  63  87 CALM      29.90S VSB 3/4
WATERTOWN      CLEAR     62  62 100 CALM      29.90F
MADISON        PTCLDY    66  64  93 CALM      29.91S FOG
MIDDLETON      CLOUDY    63  63  99 CALM      29.92S VSB 1/4
MONROE         CLEAR     64  63  94 S6        29.92S
JANESVILLE     CLEAR     66  64  94 S3        29.91S
$$

WIZ051-052-058>065-066-070>072-310800-
SOUTHEAST WISCONSIN

CITY           SKY/WX    TMP DP  RH WIND       PRES   REMARKS
MILWAUKEE      PTCLDY    69  65  86 CALM      29.90S
WAUKESHA       CLEAR     63  63 100 CALM      29.93R
MILWAUKEE/TIMM CLEAR     64  63  94 CALM      29.91S
RACINE         PTCLDY    69  65  86 W3        29.91F
BURLINGTON     PTCLDY    62  62  99 CALM      29.91S FOG
KENOSHA        PTCLDY    66  65  96 W6        29.90F
FOND DU LAC    MOCLDY    65  63  93 CALM      29.91S
SHEBOYGAN      CLOUDY    64  63  96 CALM      29.91S
WEST BEND      PTCLDY    63  61  94 CALM      29.91S FOG
JUNEAU         CLEAR     64  64  98 CALM      29.92S
$$

LSZ147-162-310800-
LAKE SUPERIOR

STATION/POSITION TIME  TEMP    WIND        PRES    WAVE
                       AIR SEA DIR/SP/G            HT/PER
                 (UTC) (F)     (DEG/KT/KT) (MB)    (FT/S)
W MID LAKE BUOY  0550   58 58  290/  4/  4 1013.0R   1
DEVILS ISLAND    0600   60        CALM     1012.9F
PORT WING        0600   57     190/  4/  6 1012.9F
SAXON HARBOR     0600   56        CALM     1013.2S
$$

LMZ867-665-643>646-310800-
LAKE MICHIGAN

STATION/POSITION TIME  TEMP    WIND        PRES    WAVE
                       AIR SEA DIR/SP/G            HT/PER
                 (UTC) (F)     (DEG/KT/KT) (MB)    (FT/S)
N MID LAKE BUOY  0550   62 65  310/ 14/ 16 1011.0R   2/ 4
NORTHPORT PIER   0600   64     330/ 12/ 15 1011.5S
KEWAUNEE LAKESHO 0600   64     290/  2/  3 1011.6R
SHEBOYGAN LAKESH 0600   67 54   10/  5/  5 1012.9R
ATWATER BUOY     0600   68     200/  4/  4 1013.6R
MILWAUKEE LAKESH 0600   71     270/  4/  5   N/A
S MID LAKE BUOY  0550   71 69  230/  8/ 10 1012.3S   1/ 4
KENOSHA   LAKESH 0600   73     240/  7/ 10 1012.2S
$$

TC  - TEMPERATURE IN CELSIUS
VSB - VISIBILITY IN STATUTE MILES
WCI - WIND CHILL INDEX
HX  - HEAT INDEX



USA.gov is the U.S. government's official web portal to all federal, state and local government web resources and services.